Temperature
15 15 15 15 13 10 12 12 12 12 13 13 13 13 13 13 13 14 13 14 14 14 14 13 13 13 13 13 13 13 14 14 14 14 14 14 14 14 14 14 14 14 14 14 14 15 15 15 15
14 15 15 14 11 11 12 12 12 12 13 13 13 13 12 12 12 13 13 13 13 13 13 13 13 13 13 13 13 13 13 13 13 14 14 14 14 14 14 14 14 14 14 14 14 14 14 15 14
14 14 14 10 10 11 13 12 11 12 13 13 12 12 12 12 12 13 13 13 13 13 13 13 13 13 13 13 13 13 13 13 13 13 13 13 13 14 14 14 14 14 14 14 14 14 14 14 14
14 14 13 10 11 11 11 12 11 11 12 12 12 11 11 12 12 12 13 13 13 13 13 13 13 12 12 13 13 13 13 13 13 13 13 13 13 13 13 13 13 13 13 13 13 13 14 14 14
14 13 10 9 10 10 10 11 11 11 11 11 11 10 11 11 12 12 12 13 13 13 12 12 12 12 12 12 12 12 12 13 13 13 13 13 13 13 13 13 13 13 13 13 13 13 13 13 14
13 10 9 9 10 10 10 11 11 10 10 11 11 10 10 11 11 12 12 12 12 12 12 12 12 12 12 12 12 12 12 12 12 12 13 13 13 13 13 13 13 13 13 13 13 13 13 13 13
11 8 9 10 10 10 10 11 10 10 9 10 11 10 10 11 11 11 12 11 11 11 11 11 12 12 12 12 12 12 12 12 12 12 12 12 12 12 12 12 12 12 12 12 12 12 13 13 13
12 8 9 9 9 10 10 10 10 10 9 10 11 10 10 11 11 11 11 11 11 11 11 11 11 11 11 12 12 12 12 12 12 12 12 12 12 12 12 12 12 12 12 12 12 12 12 12 12
11 8 8 9 9 10 9 9 9 9 9 9 9 10 10 10 10 10 10 10 10 10 11 11 11 11 11 11 11 11 11 11 11 11 11 11 12 12 12 12 12 12 12 12 12 12 12 12 12
10 8 9 9 9 9 9 9 8 9 8 8 8 9 10 10 10 10 10 10 10 10 10 10 10 11 11 11 11 11 11 11 11 11 11 11 11 11 11 11 11 11 11 11 11 11 11 11 11
8 7 8 8 9 9 8 8 8 8 6 7 8 9 9 9 9 9 10 10 10 10 10 10 10 10 10 10 10 10 10 10 10 10 10 10 10 11 11 11 11 11 11 11 11 11 11 11 11
7 7 8 8 9 8 8 7 6 6 7 8 8 8 9 9 9 9 9 9 9 10 10 10 10 10 10 10 10 10 10 10 10 10 10 10 10 10 10 10 10 10 10 10 11 11 11 11 11
7 7 7 7 8 7 7 6 6 6 7 8 8 8 8 8 8 8 8 8 9 9 9 9 9 9 9 9 10 10 10 10 9 10 10 10 10 10 10 10 10 10 10 10 10 10 10 10 10
6 7 7 7 7 7 6 5 6 6 7 7 7 7 7 8 8 8 8 8 8 8 9 9 9 9 9 9 9 9 9 9 9 9 9 9 9 10 10 10 10 10 10 10 10 10 10 10 10
7 6 6 6 7 7 7 6 5 6 6 6 6 6 7 7 7 7 7 8 8 8 8 8 8 8 8 8 9 9 9 9 9 9 9 9 9 9 9 9 9 9 9 9 9 9 9 9 9
6 6 6 6 6 6 6 6 5 6 6 5 5 6 6 6 7 7 7 7 7 7 8 8 8 8 8 8 8 8 8 8 8 8 8 8 9 9 9 9 9 9 9 9 9 9 9 9 9
5 5 5 6 5 5 5 5 5 5 5 4 5 5 5 6 6 6 6 7 7 7 7 7 7 7 8 7 7 8 8 8 8 8 8 8 8 8 8 8 8 8 8 8 8 8 8 8 8
5 4 5 5 5 5 4 4 4 4 4 4 4 4 5 5 6 6 6 6 6 7 7 7 7 7 7 7 7 7 7 7 7 7 7 7 7 8 8 8 8 8 8 8 8 8 8 8 8
5 4 4 4 5 4 4 4 4 4 3 3 3 4 4 5 5 6 6 6 6 6 6 6 6 6 7 7 7 7 7 7 7 7 7 7 7 7 7 7 7 7 7 7 7 7 7 7 7
4 4 4 4 4 4 3 3 4 3 3 3 4 4 4 4 5 5 5 5 6 6 6 6 6 6 6 6 6 6 6 6 6 6 6 6 6 6 6 6 6 6 6 6 7 7 7 7 7
4 4 4 4 3 3 3 3 4 3 3 4 4 4 4 4 4 5 5 5 5 5 5 5 5 5 5 6 5 5 5 5 6 6 6 6 6 5 6 6 6 6 6 6 6 6 6 6 6
4 4 3 3 3 2 3 3 3 3 3 3 3 3 4 4 4 4 4 4 4 4 5 5 5 5 5 5 5 5 5 5 5 5 5 5 5 5 5 5 5 5 5 5 5 5 5 6 6
3 3 3 3 2 2 2 2 3 2 2 3 2 3 3 3 3 3 3 4 4 4 4 4 4 4 4 4 4 4 4 5 5 5 5 5 5 4 4 4 4 4 5 5 5 5 5 5 5
3 2 2 1 1 2 2 2 2 2 2 2 2 2 2 3 3 3 3 3 3 3 3 3 4 4 4 4 4 4 4 4 4 4 4 4 4 4 4 4 4 4 4 4 4 4 4 4 4
2 2 2 2 1 2 1 1 2 2 1 1 1 1 1 2 2 2 2 2 3 3 3 3 3 3 3 3 3 3 3 3 4 4 3 3 3 3 3 3 3 3 3 3 3 3 4 4 4
2 2 2 2 2 1 0 0 1 1 0 1 1 1 1 1 1 1 1 2 2 2 2 2 2 2 2 2 2 2 3 3 3 3 3 3 3 3 3 3 3 3 3 3 3 3 3 3 3
2 1 1 -0 -1 -1 0 -0 0 1 -0 -0 -0 -0 -0 0 1 1 1 1 1 1 1 1 1 2 2 2 2 2 2 2 2 2 2 2 2 2 2 3 3 3 2 2 2 2 3 3 3
1 0 -0 0 1 1 0 -0 1 1 0 -1 -1 -1 -0 0 0 0 0 0 0 0 0 1 1 1 1 1 1 1 1 1 2 2 2 2 2 2 2 2 2 2 2 2 2 2 2 2 2
0 -0 -1 -1 -1 0 0 1 0 -0 -1 -2 -2 -1 -0 -0 -0 -0 -0 -0 0 -0 -0 -0 0 0 0 0 0 1 1 1 1 1 1 1 1 1 1 1 1 1 1 1 1 1 1 1 2
-0 -0 -1 0 -1 -2 -2 0 -0 -2 -2 -2 -2 -1 -1 -1 -1 -1 -1 -0 -1 -1 -1 -1 -1 -0 -0 -0 -0 -0 0 0 0 0 1 1 1 1 1 1 1 1 1 1 1 1 1 1 1
Wind_Speed
7 5 3 4 5 3 3 5 2 1 2 0 1 3 5 4 3 2 1 1 2 2 3 4 6 8 9 9 9 9 10 10 10 10 11 11 11 11 11 11 12 12 13 13 14 14 15 15 15
3 3 5 5 4 2 5 5 4 3 2 2 2 2 3 1 0 1 1 1 2 3 3 3 7 8 9 10 9 9 10 10 10 9 10 10 11 10 11 11 12 12 13 13 13 14 14 14 14
2 4 4 4 4 6 6 4 3 1 1 2 2 2 2 1 0 1 2 1 4 4 3 4 7 8 9 9 9 9 9 9 9 9 9 10 10 10 10 10 11 12 12 12 13 13 14 14 14
3 5 5 3 4 5 5 2 1 1 1 2 2 2 1 2 1 1 1 3 5 3 4 4 7 8 8 9 10 9 9 9 9 9 9 9 9 10 10 10 11 12 12 12 13 13 13 13 13
4 4 3 1 5 4 3 2 1 1 0 1 2 2 0 2 3 2 3 4 5 3 4 4 7 7 8 9 9 10 9 9 9 9 10 10 10 10 9 10 10 11 11 12 12 12 13 13 13
4 4 3 4 5 4 2 2 1 1 0 1 2 2 1 2 4 2 3 3 4 4 4 5 6 7 8 8 9 9 9 9 9 9 9 10 10 9 9 9 9 10 10 11 12 12 12 12 12
4 4 4 4 4 4 2 1 2 2 1 1 1 2 1 2 2 2 4 5 5 5 5 4 4 6 7 8 9 9 8 8 9 9 9 9 9 9 9 9 9 9 9 11 11 11 12 12 12
5 4 2 3 4 4 1 1 0 1 2 1 1 3 2 2 1 3 5 5 4 4 4 4 5 5 6 7 8 9 8 8 8 9 9 9 9 9 8 8 8 9 9 10 10 11 11 11 11
4 3 4 5 5 3 1 0 2 1 1 1 1 0 1 2 4 5 4 3 3 3 3 3 4 4 5 6 7 8 8 8 8 8 8 8 8 8 7 7 8 9 9 9 10 10 10 11 10
4 3 5 3 3 2 0 1 0 1 2 1 2 3 3 3 4 4 3 1 2 1 1 2 3 4 5 5 5 6 6 6 7 8 8 7 7 7 7 8 8 9 8 9 10 10 10 9 8
3 4 3 2 1 1 1 0 0 2 2 4 4 2 1 2 3 3 3 2 3 2 1 1 1 3 4 4 5 5 5 6 6 7 7 7 7 6 7 7 7 7 8 7 8 9 8 7 7
2 1 1 2 1 1 1 1 0 1 4 3 3 2 3 2 3 4 3 2 1 1 1 0 1 2 3 4 4 5 5 5 5 5 6 6 5 5 5 6 6 6 6 6 7 7 7 7 7
1 2 2 1 1 1 1 1 2 3 5 2 1 2 3 3 3 3 2 2 1 1 1 1 1 2 3 4 4 4 4 4 4 5 5 6 5 4 4 5 5 5 5 5 6 6 6 6 6
1 0 2 3 2 1 1 3 2 5 2 1 0 1 2 3 3 2 1 1 1 2 2 1 1 2 3 3 3 3 4 4 4 4 4 5 5 4 4 4 4 4 4 5 5 5 5 4 5
1 1 3 3 1 1 1 4 4 5 1 1 2 3 3 3 3 3 4 3 3 2 1 1 2 2 3 3 3 3 3 4 3 3 4 4 5 5 4 3 3 3 4 5 5 5 5 4 4
3 2 2 3 1 1 2 8 4 2 2 2 3 3 3 3 3 3 3 3 3 2 1 1 0 1 3 3 3 3 3 3 3 3 3 4 5 5 5 3 3 4 5 4 4 3 3 3 3
3 1 4 4 1 0 2 7 4 2 3 4 4 3 3 3 3 2 2 2 2 2 2 1 0 1 2 3 3 3 3 3 3 3 3 2 4 5 5 4 3 4 4 4 3 3 2 3 2
3 3 4 5 2 1 4 8 6 4 5 6 5 5 4 4 4 2 1 2 2 1 2 2 1 1 2 2 2 2 3 3 3 3 2 3 3 5 5 4 4 4 3 3 3 3 3 2 2
3 3 6 6 2 2 7 10 10 5 5 6 6 6 6 5 4 2 1 1 2 1 1 2 2 2 2 2 2 2 2 2 1 1 2 2 3 4 4 3 3 3 3 3 4 4 3 2 2
3 4 5 6 3 3 6 10 10 6 6 7 8 8 7 5 3 2 1 1 1 2 2 2 3 3 2 2 2 2 2 2 1 1 1 2 3 3 3 4 3 3 3 3 4 4 3 2 1
3 4 5 6 5 2 4 7 7 5 4 4 5 6 6 6 5 3 2 2 1 2 3 3 3 2 2 2 2 2 2 1 1 1 1 0 2 2 3 4 4 3 3 3 3 4 4 4 1
5 3 4 4 3 4 1 5 7 5 4 5 5 5 4 4 4 3 3 2 3 3 2 2 2 2 2 2 3 4 3 3 2 2 2 0 1 2 3 3 4 4 3 3 3 3 3 4 3
3 2 2 2 2 4 2 3 8 4 6 6 5 5 4 4 3 3 3 3 3 2 1 1 1 1 1 2 4 5 4 3 2 2 2 2 1 1 2 3 3 3 3 4 3 3 2 3 3
1 2 2 2 1 5 5 4 7 4 6 5 4 3 3 3 2 2 2 2 2 1 1 1 0 1 1 2 3 4 5 4 3 2 3 2 1 1 2 3 3 3 3 4 4 3 3 3 3
3 3 3 4 2 6 2 3 8 5 4 4 5 4 3 2 1 2 2 3 3 2 2 1 1 1 2 2 3 4 5 5 5 4 4 3 2 2 3 3 3 3 4 4 5 4 4 3 4
1 3 3 3 5 6 3 5 6 3 4 4 3 3 3 3 2 2 3 3 3 3 2 2 2 2 2 2 3 3 4 4 4 4 4 4 4 3 4 4 4 4 4 4 4 4 4 3 4
2 2 2 3 1 4 6 6 8 2 4 4 4 4 4 4 3 3 3 3 3 3 3 3 3 2 3 3 3 3 3 4 4 4 3 3 3 3 4 5 4 4 4 4 4 4 4 4 4
2 4 3 2 1 5 6 6 5 5 5 5 5 5 5 4 4 4 3 3 3 3 3 3 3 3 3 3 3 3 3 4 4 4 4 4 4 3 4 4 4 4 4 4 4 3 4 4 4
1 2 2 2 2 3 5 7 4 4 3 3 4 5 5 5 5 4 4 4 3 3 3 3 3 3 3 3 4 3 3 3 3 4 4 4 4 4 4 4 4 5 5 5 4 4 5 5 5
4 5 5 3 4 4 4 8 3 3 3 3 5 6 6 5 5 4 4 4 4 4 4 4 4 3 3 4 4 4 3 3 3 4 4 4 4 5 5 5 4 4 5 5 6 6 6 6 6
Wind_Direction
358 15 55 55 57 54 237 247 230 221 198 199 88 122 138 145 161 185 329 90 72 125 164 161 137 128 125 122 114 110 107 105 106 105 104 103 101 99 99 97 95 93 92 91 91 91 90 89 88
0 28 54 63 103 199 253 242 222 223 180 108 52 77 97 116 350 50 345 330 95 120 139 144 129 129 127 123 118 113 110 107 106 104 104 103 101 98 100 99 96 94 92 92 92 92 92 90 90
28 48 82 87 142 193 226 231 218 299 78 110 85 48 103 157 313 238 279 149 104 104 121 131 125 126 128 124 119 115 113 111 108 103 101 101 99 97 96 97 97 96 95 95 94 93 94 93 92
69 50 60 97 209 221 225 241 179 135 57 69 116 74 20 359 325 292 96 112 111 100 114 131 126 122 123 125 123 117 114 111 110 104 98 98 99 97 94 95 96 96 98 98 97 94 94 93 93
58 81 84 223 241 247 259 281 158 145 153 73 123 134 280 353 10 43 97 107 113 101 99 124 127 123 122 119 122 118 113 108 106 105 101 97 96 94 92 88 94 98 99 100 98 96 95 94 94
62 76 126 221 242 268 276 268 134 69 186 58 115 145 223 19 28 41 86 97 89 92 97 113 125 126 124 120 116 113 111 106 103 100 101 99 98 94 90 87 88 98 101 101 99 97 97 95 94
112 115 179 206 235 261 252 189 154 190 233 258 184 148 270 355 1 63 79 78 72 79 81 85 100 121 124 119 115 110 104 106 104 98 95 96 98 96 93 88 87 91 98 101 101 98 98 96 94
124 120 173 213 216 244 245 126 120 162 237 311 106 157 235 272 48 80 78 76 75 68 68 75 84 95 107 114 113 108 105 103 103 98 93 92 90 88 89 88 91 89 91 98 100 100 97 95 94
97 102 213 221 210 228 182 103 343 10 82 17 358 311 313 99 91 81 68 61 70 68 55 68 81 88 98 105 111 109 105 102 100 98 93 92 86 82 79 82 88 89 86 95 96 95 95 93 90
103 177 224 225 212 191 186 159 236 57 11 327 328 349 38 90 109 110 110 131 145 144 80 65 89 91 93 98 98 96 97 96 96 94 91 93 93 90 90 90 85 88 86 92 96 92 89 84 82
131 191 221 279 284 166 199 286 330 147 258 247 243 257 94 118 138 151 161 182 198 189 161 93 100 107 104 96 94 90 93 90 91 91 91 94 90 89 87 85 79 79 80 84 90 82 76 77 80
134 263 248 283 345 99 198 185 30 202 249 272 242 194 161 165 188 189 191 206 199 161 201 170 84 114 114 108 103 103 98 92 90 94 95 94 85 78 77 77 80 77 78 77 81 81 79 77 76
182 252 300 326 38 97 80 264 231 267 283 308 95 134 173 194 215 211 200 189 174 188 245 212 116 126 121 110 104 104 103 104 105 103 101 102 96 90 84 80 80 82 83 81 78 80 79 76 73
171 261 305 312 299 284 207 278 256 266 280 342 220 220 220 220 227 222 203 208 209 218 240 226 157 132 118 118 116 116 113 118 116 110 111 115 112 106 100 94 82 77 83 90 92 91 87 78 76
111 10 337 327 286 231 209 295 244 253 230 239 262 257 256 256 249 232 219 212 213 223 226 225 186 134 134 133 126 117 116 121 112 120 127 123 122 117 113 103 93 85 95 97 95 92 89 85 76
49 37 308 306 309 269 183 264 257 220 188 241 268 274 270 276 267 255 238 220 214 200 195 210 188 137 142 135 125 117 115 115 106 118 132 135 131 126 118 107 101 110 109 99 104 109 110 99 86
33 298 269 294 290 217 192 256 261 215 212 241 255 261 261 276 295 287 252 225 214 198 184 182 184 166 148 139 122 113 111 106 100 103 111 132 136 131 125 120 111 113 111 106 112 113 118 121 100
253 257 265 268 288 234 244 260 270 241 234 244 248 251 250 253 267 283 270 226 219 213 182 179 197 185 140 133 123 110 101 89 84 86 97 110 125 134 130 121 113 114 113 119 123 119 98 120 119
213 235 263 270 277 255 250 264 270 248 236 243 243 243 246 254 275 288 299 253 205 211 194 190 202 205 149 160 170 169 180 166 118 77 99 119 116 121 132 129 124 124 131 143 140 133 121 103 106
222 255 273 290 298 252 268 272 271 244 232 235 237 239 245 259 278 279 289 325 221 207 221 211 210 203 184 187 179 171 168 169 171 119 103 131 136 134 128 124 136 137 137 131 137 133 142 130 110
260 235 257 272 316 322 304 290 274 261 240 250 241 237 243 237 239 249 255 257 270 242 226 225 219 208 197 180 152 139 126 120 159 181 183 162 159 155 143 139 136 132 144 160 162 165 155 163 167
266 257 259 274 304 293 306 284 282 274 275 261 257 252 252 247 238 252 261 268 260 263 254 237 213 202 195 174 168 168 178 191 199 194 192 172 155 160 154 149 150 151 152 159 171 168 171 164 173
248 302 275 264 225 290 278 245 285 299 278 269 260 258 257 248 236 247 260 260 269 268 262 259 226 222 213 188 183 181 190 198 189 179 177 181 161 165 167 166 163 161 167 174 175 172 172 173 177
263 9 26 43 84 273 253 220 280 261 253 283 285 271 269 267 256 264 287 303 312 318 315 304 240 267 232 207 195 190 192 189 181 185 194 202 200 187 188 188 179 176 181 183 185 184 182 192 183
49 59 3 349 337 260 271 228 257 267 263 268 283 287 297 295 300 302 310 318 315 306 294 278 238 279 269 230 214 206 202 196 197 198 202 202 203 210 209 204 197 191 195 192 189 184 193 194 194
216 142 169 238 259 289 310 245 259 277 309 316 316 310 328 327 321 303 299 302 300 299 290 273 256 269 276 249 234 217 209 204 205 202 205 210 212 211 216 209 206 204 201 197 191 189 197 198 206
153 184 180 152 271 282 276 285 298 295 342 352 355 355 336 322 315 302 305 304 302 301 290 270 258 273 271 258 241 223 216 212 211 207 205 210 213 214 208 207 204 206 203 201 194 197 201 204 211
164 155 109 143 252 279 288 279 273 299 319 335 342 335 321 324 319 308 305 302 299 297 299 303 279 266 269 263 252 239 220 213 210 206 212 215 215 209 203 204 199 199 200 199 193 202 204 207 218
130 139 143 161 199 219 282 276 236 239 278 293 302 311 311 312 310 304 304 307 311 319 311 306 301 284 276 268 259 248 235 214 210 216 216 213 215 208 200 203 200 198 199 198 198 207 205 211 221
201 195 172 195 240 215 245 270 266 230 281 296 307 314 316 312 310 308 305 312 320 317 314 305 297 282 273 270 259 247 247 226 219 230 226 213 207 212 211 206 203 208 210 206 205 213 213 211 216
Height
1501 1502 1503 1506 1510 1520 1521 1515 1511 1510 1510 1509 1509 1510 1511 1513 1516 1521 1516 1514 1516 1518 1520 1523 1524 1526 1527 1529 1530 1532 1533 1534 1535 1536 1536 1537 1538 1539 1540 1540 1541 1541 1542 1542 1543 1543 1544 1544 1544
1501 1502 1505 1506 1516 1524 1519 1512 1510 1508 1508 1509 1509 1510 1511 1512 1513 1514 1514 1514 1516 1518 1520 1522 1524 1526 1527 1529 1530 1532 1533 1534 1535 1536 1537 1538 1539 1540 1540 1541 1541 1542 1543 1543 1544 1544 1545 1545 1545
1501 1503 1505 1509 1518 1520 1513 1508 1508 1508 1508 1508 1509 1510 1511 1512 1513 1513 1514 1515 1517 1519 1521 1522 1524 1525 1527 1529 1530 1532 1533 1534 1535 1536 1537 1538 1539 1540 1541 1541 1542 1543 1543 1544 1545 1545 1546 1546 1546
1502 1504 1506 1513 1515 1513 1509 1507 1507 1508 1508 1508 1509 1511 1511 1513 1513 1513 1514 1515 1517 1518 1520 1522 1524 1525 1527 1528 1530 1531 1533 1534 1535 1536 1537 1538 1539 1540 1541 1542 1543 1543 1544 1545 1545 1546 1547 1547 1548
1502 1503 1511 1516 1513 1510 1508 1507 1507 1507 1508 1508 1509 1510 1511 1512 1512 1513 1514 1515 1516 1518 1520 1522 1523 1525 1527 1528 1529 1531 1532 1534 1535 1536 1537 1538 1539 1540 1541 1542 1543 1544 1544 1545 1546 1546 1547 1548 1548
1502 1504 1515 1516 1512 1509 1507 1506 1507 1508 1508 1508 1509 1510 1510 1511 1511 1512 1514 1515 1517 1518 1520 1521 1523 1525 1526 1528 1529 1530 1532 1533 1534 1536 1537 1538 1539 1540 1541 1542 1543 1544 1545 1546 1546 1547 1548 1548 1549
1503 1508 1513 1512 1511 1509 1507 1506 1507 1507 1508 1509 1509 1510 1510 1510 1511 1512 1513 1515 1516 1518 1519 1521 1523 1524 1525 1527 1528 1530 1531 1533 1534 1535 1536 1538 1539 1539 1540 1541 1542 1544 1545 1545 1546 1547 1548 1549 1550
1501 1507 1511 1512 1510 1508 1506 1506 1506 1507 1508 1509 1509 1509 1509 1510 1511 1511 1513 1514 1515 1517 1519 1520 1522 1523 1524 1526 1527 1529 1530 1532 1533 1534 1536 1537 1538 1539 1540 1541 1542 1543 1544 1545 1546 1547 1548 1549 1550
1502 1510 1511 1509 1508 1506 1505 1506 1506 1507 1507 1508 1508 1509 1509 1510 1510 1511 1512 1513 1514 1516 1518 1519 1521 1522 1523 1524 1526 1528 1529 1531 1532 1533 1535 1536 1537 1538 1539 1540 1541 1542 1543 1545 1546 1547 1548 1549 1550
1501 1509 1506 1505 1505 1504 1505 1505 1506 1507 1507 1507 1507 1508 1508 1508 1509 1510 1510 1511 1513 1514 1516 1518 1519 1521 1522 1523 1525 1526 1528 1529 1530 1532 1533 1534 1536 1537 1538 1539 1541 1542 1543 1545 1546 1547 1548 1549 1550
1501 1505 1504 1503 1503 1503 1504 1505 1506 1506 1507 1506 1506 1506 1507 1507 1508 1508 1509 1510 1511 1513 1514 1516 1518 1519 1521 1522 1523 1525 1526 1528 1529 1530 1532 1533 1534 1536 1537 1538 1540 1541 1542 1544 1545 1546 1547 1549 1550
1503 1504 1503 1503 1503 1503 1504 1505 1506 1505 1506 1505 1505 1505 1505 1506 1506 1507 1508 1509 1510 1511 1513 1514 1516 1518 1519 1520 1522 1523 1525 1526 1527 1529 1530 1532 1533 1534 1535 1537 1538 1540 1541 1542 1544 1545 1546 1548 1549
1503 1503 1503 1503 1503 1503 1503 1504 1505 1504 1504 1504 1504 1504 1504 1504 1505 1506 1507 1507 1508 1509 1511 1512 1514 1516 1517 1519 1520 1522 1523 1524 1526 1527 1529 1530 1531 1532 1534 1535 1537 1538 1539 1540 1542 1543 1545 1546 1548
1503 1503 1503 1502 1502 1502 1503 1503 1504 1501 1502 1502 1502 1501 1502 1502 1503 1503 1504 1505 1505 1507 1508 1510 1512 1514 1515 1516 1518 1519 1521 1523 1524 1525 1527 1528 1529 1530 1532 1533 1535 1536 1537 1539 1540 1542 1543 1545 1546
1502 1504 1503 1502 1501 1502 1503 1502 1502 1500 1501 1500 1500 1500 1500 1500 1500 1501 1502 1502 1503 1505 1506 1508 1509 1511 1513 1514 1516 1517 1519 1520 1522 1523 1525 1526 1527 1528 1530 1531 1532 1534 1536 1537 1538 1540 1541 1543 1544
1503 1506 1507 1503 1501 1501 1505 1502 1500 1499 1499 1498 1498 1498 1498 1498 1498 1498 1499 1500 1501 1503 1504 1505 1507 1508 1510 1512 1513 1515 1516 1518 1519 1521 1523 1524 1525 1526 1527 1529 1530 1532 1533 1535 1536 1537 1539 1540 1542
1508 1511 1508 1505 1502 1501 1503 1501 1497 1497 1497 1496 1496 1496 1495 1495 1495 1495 1496 1497 1498 1499 1501 1502 1504 1506 1507 1509 1511 1512 1513 1515 1516 1518 1520 1521 1522 1523 1525 1526 1528 1529 1531 1532 1533 1535 1537 1538 1540
1510 1511 1508 1506 1502 1502 1503 1499 1495 1495 1495 1494 1494 1493 1493 1492 1492 1493 1493 1494 1496 1497 1498 1500 1501 1502 1504 1506 1508 1509 1510 1512 1513 1515 1516 1518 1519 1520 1522 1523 1525 1527 1528 1529 1531 1533 1534 1536 1537
1507 1508 1508 1505 1502 1503 1501 1497 1492 1492 1492 1491 1491 1490 1490 1490 1490 1490 1491 1492 1493 1494 1495 1497 1498 1499 1501 1503 1504 1506 1507 1508 1510 1512 1513 1515 1516 1517 1519 1520 1522 1523 1525 1526 1528 1529 1531 1533 1535
1506 1507 1507 1504 1501 1502 1500 1495 1489 1487 1487 1487 1486 1486 1487 1486 1487 1488 1488 1489 1489 1491 1492 1494 1495 1496 1498 1500 1501 1503 1504 1505 1507 1509 1510 1512 1513 1514 1515 1517 1518 1520 1521 1523 1525 1526 1528 1530 1532
1505 1506 1506 1505 1503 1502 1501 1494 1487 1484 1484 1483 1483 1484 1484 1484 1484 1485 1486 1486 1487 1488 1489 1490 1491 1493 1495 1496 1498 1500 1501 1502 1504 1505 1507 1508 1510 1512 1513 1514 1515 1517 1518 1520 1521 1523 1525 1527 1529
1505 1504 1505 1504 1506 1507 1505 1502 1487 1484 1483 1481 1481 1481 1481 1482 1483 1483 1483 1483 1484 1485 1486 1487 1488 1489 1491 1493 1494 1495 1496 1498 1499 1501 1503 1505 1507 1508 1509 1511 1512 1513 1515 1517 1518 1520 1522 1524 1526
1505 1504 1505 1505 1507 1509 1506 1505 1490 1485 1482 1479 1479 1479 1479 1479 1480 1480 1481 1481 1481 1482 1483 1483 1484 1486 1487 1489 1490 1492 1493 1494 1496 1498 1500 1502 1503 1505 1506 1507 1508 1510 1511 1514 1515 1517 1519 1521 1523
1504 1505 1506 1508 1510 1507 1503 1506 1493 1486 1481 1478 1477 1477 1477 1477 1478 1478 1478 1478 1478 1479 1479 1480 1481 1482 1484 1485 1487 1488 1489 1491 1492 1494 1495 1497 1499 1501 1502 1503 1505 1506 1508 1510 1511 1513 1515 1517 1519
1506 1510 1513 1511 1513 1506 1505 1505 1492 1481 1479 1477 1476 1475 1475 1475 1475 1475 1475 1475 1475 1475 1476 1476 1477 1478 1480 1481 1482 1484 1485 1487 1488 1489 1491 1493 1495 1496 1498 1499 1501 1502 1504 1506 1508 1510 1511 1513 1515
1508 1510 1514 1514 1514 1511 1508 1503 1488 1481 1478 1476 1475 1475 1474 1474 1473 1474 1473 1473 1473 1473 1473 1473 1474 1475 1476 1477 1478 1479 1481 1482 1484 1485 1487 1489 1490 1492 1494 1496 1497 1499 1501 1502 1504 1506 1508 1509 1511
1509 1512 1512 1519 1523 1522 1508 1500 1487 1478 1478 1476 1475 1475 1474 1473 1473 1473 1472 1472 1471 1470 1470 1471 1471 1471 1472 1473 1474 1475 1476 1478 1479 1481 1482 1484 1486 1488 1490 1491 1493 1494 1496 1498 1500 1501 1503 1505 1507
1507 1510 1516 1516 1514 1511 1507 1502 1490 1480 1479 1478 1476 1475 1474 1473 1473 1472 1471 1470 1469 1468 1468 1468 1468 1468 1468 1469 1470 1471 1472 1473 1474 1476 1477 1479 1481 1483 1485 1486 1487 1489 1491 1493 1495 1496 1498 1500 1502
1510 1512 1513 1516 1516 1515 1511 1494 1482 1481 1478 1478 1477 1475 1474 1472 1471 1470 1469 1468 1467 1466 1465 1465 1465 1464 1464 1465 1466 1467 1467 1468 1469 1471 1472 1474 1476 1477 1479 1481 1482 1484 1486 1488 1490 1491 1493 1495 1497
1506 1508 1512 1512 1514 1518 1516 1497 1479 1479 1477 1477 1476 1475 1473 1472 1471 1469 1467 1466 1464 1463 1462 1461 1461 1460 1461 1461 1461 1462 1463 1464 1464 1466 1467 1469 1470 1472 1474 1475 1477 1478 1480 1482 1484 1486 1488 1489 1491